Location: Kikino
(54.4440°N, 112.0940°W)
Time: 06:15:28
(UTC+00:00)

Transit 2A Rocket - Pass Details

Date: 27 May 2024
Orbit: 583 x 910 km, 66.7° (Epoch: 23 June)

Event Time Altitude Azimuth Distance (km) Brightness Sun altitude
Exits shadow 09:53:47 - 186° (S) 2,443 7.1 -7.8°
Reaches altitude 10° 09:54:36 10° 183° (S) 2,150 6.8 -7.7°
Maximum altitude 09:59:05 37° 117° (ESE) 1,151 6.0 -7.3°
Drops below altitude 10° 10:04:00 10° 51° (NE) 2,366 9.1 -6.9°
Sets 10:06:41 0° 44° (NE) 3,355 10.8 -6.7°
